Location: Unspecified
(40.7945°N, 0.0000°E)
Time: 20:10:06
(UTC+00:00)

Explorer 7 - Pass Details

Date: 26 June 2021
Orbit: 484 x 676 km, 50.3° (Epoch: 30 July)

Event Time Altitude Azimuth Distance (km) Brightness Sun altitude
Rises 21:02:31 0° 288° (WNW) 3,025 11.7 -13.4°
Reaches altitude 10° 21:05:14 10° 301° (WNW) 2,112 11.0 -13.7°
Maximum altitude 21:09:21 26° 358° (N) 1,312 9.3 -14.3°
Drops below altitude 10° 21:13:25 10° 55° (NE) 2,078 9.7 -14.8°
Sets 21:16:03 0° 68° (ENE) 2,966 10.4 -15.1°
